User: anonymous   Login
Location: Pine Mountain Observatory
(43.7910°N, 120.9377°W)
Time: 10:28:39
(UTC-08:00)
Language:

APEX - Orbit

View from above orbital plane
View from above orbital plane
View from above satellite
View from above satellite

Ground track
Ground track

The orbit data is extracted from the following two-line orbital elements,

1 23191U 94046A   14330.12327845  .00026404  00000-0  10632-2 0   612
2 23191 069.9183 187.5250 0716692 083.7430 042.3278 14.09831296983298
Epoch (UTC): 26 November 2014 02:57:31
Eccentricity: 0.0716692
inclination: 69.9183°
perigee height: 341 km
apogee height: 1378 km
right ascension of ascending node: 187.5250°
argument of perigee: 83.7430°
revolutions per day: 14.09831296
mean anomaly at epoch: 42.3278°
orbit number at epoch: 98329

The dashed part of the orbit path shows where the satellite is in the earth's shadow,  

DLR